Location: Wingville
(42.9917°N, 90.4915°W)
Time: 15:01:35
(UTC+00:00)

EO-79 - Visible Passes

Search period start: 26 June 2022 00:00
Search period end: 06 July 2022 00:00
Orbit: 587 x 605 km, 98.0° (Epoch: 26 June)

Date Brightness Start Highest point End Pass type
(mag) Time Alt. Az. Time Alt. Az. Time Alt. Az.
26 Jun ? 06:38:44 10° NE 06:41:10 15° E 06:41:59 14° ESE visible
26 Jun ? 08:12:59 10° N 08:17:03 48° WNW 08:18:39 31° SW visible
27 Jun ? 06:48:10 10° NE 06:51:11 19° E 06:52:00 18° ESE visible
27 Jun ? 08:23:01 10° N 08:26:56 38° WNW 08:28:40 26° WSW visible
28 Jun ? 06:57:44 10° NE 07:01:11 24° E 07:02:01 22° ESE visible
28 Jun ? 08:33:06 10° N 08:36:48 30° WNW 08:38:41 21° WSW visible
29 Jun ? 07:07:24 10° NE 07:11:09 30° E 07:12:02 28° ESE visible
29 Jun ? 08:43:13 10° NNW 08:46:38 24° WNW 08:48:42 17° WSW visible
30 Jun ? 07:17:08 10° NNE 07:21:07 38° E 07:22:02 34° SE visible
30 Jun ? 08:53:25 10° NNW 08:56:28 20° WNW 08:58:42 13° WSW visible
01 Jul ? 07:26:56 10° NNE 07:31:03 50° E 07:32:02 41° SE visible
01 Jul ? 09:03:42 10° NNW 09:06:16 16° WNW 09:08:42 10° W visible
02 Jul ? 07:36:46 10° NNE 07:40:58 65° ESE 07:42:02 46° SSE visible
02 Jul ? 09:14:10 10° NW 09:16:03 13° WNW 09:17:56 10° W visible
03 Jul ? 07:46:37 10° NNE 07:50:52 84° E 07:52:01 48° S visible
03 Jul ? 09:25:23 10° NW 09:25:49 10° WNW 09:26:16 10° WNW visible
04 Jul ? 07:56:31 10° N 08:00:46 76° WNW 08:02:00 45° SSW visible
05 Jul ? 06:32:49 10° ENE 06:34:39 12° E 06:35:18 12° E visible
05 Jul ? 08:06:27 10° N 08:10:38 59° WNW 08:11:58 39° SW visible
